Location: Batang Balui
(2.7000°N, 113.7833°E)
Time: 15:14:53
(UTC+00:00)

VELOX 1 - Pass Details

Date: 03 April 2023
Orbit: 617 x 630 km, 98.4° (Epoch: 29 May)

Event Time Altitude Azimuth Distance (km) Brightness Sun altitude
Rises 21:55:23 0° 152° (SSE) 2,916 ? -7.9°
Reaches altitude 10° 21:57:44 10° 143° (SE) 2,005 ? -7.3°
Maximum altitude 22:01:42 34° 78° (ENE) 1,029 ? -6.3°
Drops below altitude 10° 22:05:38 10° 12° (NNE) 1,992 ? -5.3°
Sets 22:07:57 0° 3° (N) 2,893 ? -4.8°
